Location: Winthrop
(48.4780°N, 120.1850°W)
Time: 03:19:54
(UTC-08:00)

Vanguard 1 Rocket - Pass Details

Date: 07 December 2023
Orbit: 654 x 4218 km, 34.3° (Epoch: 24 February)

Event Time Altitude Azimuth Distance (km) Brightness Sun altitude
Rises 03:25:45 0° 220° (SW) 8,456 - -40.7°
Reaches altitude 10° 03:32:37 10° 213° (SSW) 7,346 - -39.6°
Exits shadow 03:35:55 15° 209° (SSW) 6,801 11.5 -39.1°
Maximum altitude 03:52:50 36° 158° (SSE) 4,463 10.8 -36.3°
Drops below altitude 10° 04:06:05 10° 99° (E) 4,913 11.9 -34.1°
Sets 04:09:31 0° 91° (E) 5,496 12.5 -33.6°
